Location: Shenandoah County Park
(38.9356°N, 78.4524°W)
Time: 07:19:40
(UTC-04:00)

Vanguard 1 Rocket - Pass Details

Date: 14 February 2023
Orbit: 652 x 4223 km, 34.3° (Epoch: 26 March)

Event Time Altitude Azimuth Distance (km) Brightness Sun altitude
Rises 11:31:32 0° 260° (W) 3,615 10.4 36.5°
Reaches altitude 10° 11:33:36 10° 257° (WSW) 2,899 10.0 36.6°
Maximum altitude 11:40:38 68° 176° (S) 1,680 10.0 37.0°
Drops below altitude 10° 11:54:38 10° 98° (E) 5,481 11.7 37.5°
Sets 12:00:10 0° 96° (E) 7,062 12.1 37.7°
